Liberia, Costa Rica

4:28 AM CST on November 22, 2017 (GMT -0600)
Daniel Oduber Quiros International

Weather History for MRLB - September, 2013

Change the Weather History Date:

Thursday, September 19, 2013

  Actual Average Record
Temperature  
Mean Temperature 78 °F -  
Max Temperature 84 °F 84 °F 95 °F (2016)
Min Temperature 72 °F 73 °F 71 °F (2003)
Cooling Degree Days 13    
Growing Degree Days 28 (Base 50)    
Moisture  
Dew Point 74 °F    
Average Humidity 81    
Maximum Humidity 100    
Minimum Humidity 64    
Precipitation  
Precipitation 0.00 in - - ()
Sea Level Pressure  
Sea Level Pressure 29.86 in    
Wind  
Wind Speed 4 mph ()    
Max Wind Speed 8 mph    
Max Gust Speed -    
Visibility 7.5 miles    
Events Fog , Rain    
Averages and records for this station are not official NWS values.
T = Trace of Precipitation, MM = Missing Value Source: Averaged Metar Reports

Daily Weather History Graph

Daily Weather History Graph

Search for Another Location

Airport or City:

Trip Planner

Search our weather history database for the weather conditions in past years. The results will help you decide how hot, cold, wet, or windy it might be!

Date:

Astronomy

Sep. 19, 2013 Rise Set
Actual Time 5:31 AM CST 5:39 PM CST
Civil Twilight 5:10 AM CST 6:01 PM CST
Nautical Twilight 4:46 AM CST 6:25 PM CST
Astronomical Twilight 4:21 AM CST 6:49 PM CST
Moon 5:52 PM CST (9/19) 5:31 AM CST (9/19)
Length of Visible Light 12h 50m
Length of Day
12h 08m
Full, 100% of the Moon is Illuminated
Sep 19
Full
Sep 26
Last Quarter
Oct 4
New
Oct 11
First Quarter
Oct 18
Full

Hourly Weather History & Observations

Time (CST) Temp. Heat Index Dew Point Humidity Pressure Visibility Wind Dir Wind Speed Gust Speed Precip Events Conditions
6:00 AM 78 °F - 76 °F 93% 29.86 in 12 mi NE 3.5 mph - -   Mist
6:00 AM 77.0 °F - 77.0 °F 100% 29.84 in 6.2 mi NE 3.5 mph - N/A Fog Patches of Fog
7:00 AM 80.6 °F 88.1 °F 78.8 °F 94% 29.86 in 5.6 mi NE 3.5 mph - N/A Fog Fog
8:00 AM 78.8 °F - 73.4 °F 83% 29.86 in 6.2 mi ENE 4.6 mph - N/A Fog Mostly Cloudy
9:00 AM 79 °F - 73 °F 76% 29.89 in 12 mi NNE 3.5 mph - -   Overcast
9:00 AM 78.8 °F - 73.4 °F 83% 29.87 in - NNE 3.5 mph - N/A   Clear
10:00 AM 80.6 °F 85.4 °F 73.4 °F 79% 29.88 in 6.2 mi South 8.1 mph - N/A   Mostly Cloudy
11:00 AM 82.4 °F 88.2 °F 73.4 °F 74% 29.89 in 6.2 mi South 6.9 mph - N/A   Mostly Cloudy
12:00 PM 84 °F - 74 °F 65% 29.89 in 12 mi South 5.8 mph - -   Overcast
12:00 PM 84.2 °F 90.9 °F 73.4 °F 70% 29.88 in 6.2 mi South 5.8 mph - N/A   Mostly Cloudy
1:00 PM 84.2 °F 90.9 °F 73.4 °F 70% 29.85 in 6.2 mi South 5.8 mph - N/A   Mostly Cloudy
2:00 PM 82.4 °F 89.5 °F 75.2 °F 79% 29.82 in 6.2 mi ESE 4.6 mph - N/A   Mostly Cloudy
3:00 PM 83 °F - 73 °F 64% 29.82 in 12 mi SE 4.6 mph - -   Overcast
3:00 PM 84.2 °F 90.9 °F 73.4 °F 70% 29.80 in 6.2 mi SE 4.6 mph - N/A   Mostly Cloudy
4:00 PM 80.6 °F 86.2 °F 75.2 °F 84% 29.81 in 6.2 mi West 4.6 mph - N/A   Mostly Cloudy
5:00 PM 80.6 °F 85.4 °F 73.4 °F 79% 29.84 in 6.2 mi West 3.5 mph - N/A   Mostly Cloudy
6:00 PM 79 °F - 75 °F 83% 29.87 in 12 mi West 4.6 mph - - Rain Light Drizzle
6:00 PM 78.8 °F - 75.2 °F 89% 29.86 in 6.2 mi West 4.6 mph - N/A   Light Drizzle
6:16 PM 77.0 °F - 71.6 °F 83% 29.87 in 3.7 mi SE 5.8 mph - N/A Rain Rain
7:00 PM 75.2 °F - 73.4 °F 94% 29.89 in 6.2 mi West 3.5 mph - N/A Rain Light Rain
8:00 PM 75.2 °F - 73.4 °F 94% 29.91 in 6.2 mi NNW 3.5 mph - N/A   Mostly Cloudy